Flag for Canada Weather past 2 weeks in Dieppe, New Brunswick, Canada

Now
64 °F

Overcast.


Feels Like: 64 °F
Forecast: 61 / 75 °F
Wind: 14 mph from South

Location: Moncton

Current Time: Jul 2, 2015 at 5:17:40 AM

Latest Report: Jul 2, 2015 at 3:00 AM


Visibility: 15 mi

Pressure: 29.73 "Hg

Humidity: 88%

Dew point: 61 °F

Location of DieppeLocation

Historic Weather in Dieppe — Graph

°F

Dieppe temperature yesterday

Maximum temperature yesterday: 75 °F (at 12:00 PM)
Minimum temperature yesterday: 52 °F (at 5:00 AM)
Average temperature yesterday: 65 °F

Past Weeks' High & Low Weather Summary

 TemperatureHumidityPressure
High75 °F (Jun 18, 12:00 PM)100% (Jun 20, 12:00 AM)30.18 "Hg (Jun 20, 12:00 AM)
Low43 °F (Jun 21, 6:00 AM)33% (Jun 17, 5:00 PM)29.64 "Hg (Jun 24, 7:00 AM)
Average58 °F76%29.92 "Hg
* Reported Jun 17 3:00 AM — Jul 2 3:00 AM, Dieppe, Weather by CustomWeather, © 2015

Note: Actual official high and low records may vary slightly from our data, if they occured in-between our weather recording intervals... More about our weather records

Advertising

Dieppe weather history for previous 24 hours

 ConditionsComfort  
Time TempWeatherWind HumidityBarometerVisibility
3:00 AM
Thu, Jul 2
64 °FOvercast.14 mph88%29.73 "Hg15 mi
2:00 AM63 °FOvercast.13 mph88%29.73 "Hg15 mi
1:00 AM63 °FPartly cloudy.15 mph88%29.74 "Hg15 mi
12:00 AM63 °FPassing clouds.9 mph88%29.75 "Hg15 mi
11:00 PM
Wed, Jul 1
64 °FPartly cloudy.13 mph78%29.78 "Hg15 mi
10:00 PM66 °FPartly sunny.8 mph73%29.80 "Hg15 mi
9:00 PM66 °FPartly sunny.15 mph73%29.79 "Hg15 mi
8:00 PM72 °FBroken clouds.12 mph61%29.80 "Hg15 mi
7:00 PM73 °FBroken clouds.10 mph61%29.81 "Hg15 mi
6:00 PM73 °FBroken clouds.6 mph61%29.84 "Hg15 mi
5:00 PM73 °FPartly sunny.7 mph57%29.86 "Hg15 mi
4:00 PM73 °FPartly sunny.10 mph53%29.88 "Hg15 mi
3:00 PM75 °FPartly sunny.12 mph54%29.90 "Hg15 mi
2:00 PM73 °FPartly sunny.9 mph57%29.92 "Hg15 mi
1:00 PM75 °FPartly sunny.10 mph57%29.94 "Hg15 mi
12:00 PM75 °FBroken clouds.10 mph57%29.95 "Hg15 mi
11:00 AM72 °FPartly sunny.10 mph69%29.96 "Hg15 mi
10:00 AM70 °FPassing clouds.5 mph69%29.97 "Hg15 mi
9:00 AM66 °FPassing clouds.5 mph73%29.98 "Hg15 mi
8:00 AM59 °FScattered clouds.3 mph88%29.99 "Hg15 mi
7:00 AM54 °FPassing clouds.6 mph94%29.98 "Hg15 mi
6:00 AM52 °FPassing clouds.2 mph94%29.98 "Hg15 mi
5:00 AM52 °FPassing clouds.2 mph94%29.99 "Hg15 mi
Weather by CustomWeather, © 2015

See weather overviewHow to use our weather pages